Regional Weather Roundup
Issued by NWS

Home | Current Version | Previous Version | Graphics & Text | Print | Product List | Glossary On
Versions: 1 2 3 4 5 6 7 8 9 10 11 12 13 14 15 16 17 18 19 20 21 22 23 24 25 26 27 28 29 30 31 32 33 34 35 36 37 38 39 40 41 42 43 44 45 46 47 48 49 50
000
ASUS44 KMEG 072110
RWRTN
TENNESSEE HOURLY STATE WEATHER ROUNDUP
NATIONAL WEATHER SERVICE MEMPHIS TN
400 PM CDT TUE JUL 07 2015

TNZ002-004-019-021-049-052-054-088>092-072200-
WEST TENNESSEE

CITY           SKY/WX    TMP DP  RH WIND       PRES   REMARKS
MEMPHIS INTL   MOSUNNY   89  74  60 SW12G18   30.02F HX  98
NWS MEMPHIS      N/A     90 N/A N/A MISG        N/A
JACKSON        MOSUNNY   88  74  63 S12       30.01F HX  96
DYERSBURG        N/A    N/A N/A N/A MISG        N/A
PARIS          SUNNY     81  73  78 SW9       30.01F
LEXINGTON      MOSUNNY   86  72  62 S16       30.01F HX  92
$$

TNZ008-025-027-028-033-062-065-066-072200-
NORTH MIDDLE TENNESSEE

CITY           SKY/WX    TMP DP  RH WIND       PRES   REMARKS
NASHVILLE      CLOUDY    87  71  58 SW12G21   30.04F HX  93
CLARKSVILLE    TSTM      79  73  82 SW7G25    30.00F
SMYRNA         CLOUDY    90  71  53 SW13G20   30.04F HX  96
COOKEVILLE     MOSUNNY   88  73  62 SW14      30.07F HX  96
CROSSVILLE     PTSUNNY   83  67  58 SW10G17   30.14F
$$

TNZ061-075-076-078-094-096-097-072200-
SOUTH MIDDLE TENNESSEE

CITY           SKY/WX    TMP DP  RH WIND       PRES   REMARKS
FAYETTEVILLE   SUNNY     86  70  58 SW10      30.09F HX  90
TULLAHOMA      MOSUNNY   86  70  58 SW9       30.11S HX  90
WINCHESTER     SUNNY     88  72  58 SW13      30.10F HX  94
MCMINNVILLE    SUNNY     86  73  66 SW10      30.09F HX  93
COLUMBIA       MOSUNNY   90  73  58 SW12      30.04F HX  98
SHELBYVILLE    MOSUNNY   88  73  62 SW13        N/A  HX  96
$$

TNZ017-018-042-046-047-072200-
NORTHEAST TENNESSEE

CITY           SKY/WX    TMP DP  RH WIND       PRES   REMARKS
TRI CITIES     MOSUNNY   86  65  49 SW13      30.11F
ELIZABETHTON   CLEAR     84  63  48 SW13      30.12S
$$

TNZ012-013-036-069-073-074-072200-
CENTRAL EAST TENNESSEE

CITY           SKY/WX    TMP DP  RH WIND       PRES   REMARKS
KNOXVILLE      CLOUDY    86  67  52 SW16G24   30.08F
OAK RIDGE      PTSUNNY   89  69  51 SW9       30.09F HX  93
GATLINBURG       N/A     88  64  45 W8        30.09S
MORRISTOWN     CLEAR     88  70  55 SW13      30.11F HX  92
$$

TNZ083-085-099-072200-
SOUTHEAST TENNESSEE

CITY           SKY/WX    TMP DP  RH WIND       PRES   REMARKS
CHATTANOOGA    MOSUNNY   90  66  45 S13G25    30.09F HX  92
$$

SKY/WX REPORTED AS FAIR MEANS FEW OR NO CLOUDS BELOW
12 THOUSAND FEET.




USA.gov is the U.S. government's official web portal to all federal, state and local government web resources and services.